Location: Campillo
(40.8621°N, 4.2488°W)
Time: 17:01:43
(UTC+00:00)

Cosmos 1777 Rocket - Pass Details

Date: 30 September 2021
Orbit: 759 x 775 km, 74.0° (Epoch: 23 October)

Event Time Altitude Azimuth Distance (km) Brightness Sun altitude
Rises 05:34:54 0° 329° (NNW) 3,225 6.9 -8.0°
Reaches altitude 10° 05:37:34 10° 317° (NW) 2,295 6.1 -7.5°
Maximum altitude 05:41:53 27° 261° (W) 1,424 4.9 -6.6°
Drops below altitude 10° 05:46:12 10° 204° (SSW) 2,285 6.2 -5.8°
Sets 05:48:51 0° 193° (SSW) 3,208 7.1 -5.3°
